�������l�o���
Date,Time,MP-1(��Sv/h),MP-2(��Sv/h),MP-3(��Sv/h),MP-4(��Sv/h),MP-5(��Sv/h),MP-6(��Sv/h),MP-7(��Sv/h),MP-8(��Sv/h),����,����(m/s),���J
2020/12/25,00:00,0.687,0.975,0.620,1.229,0.864,0.387,0.681,0.640,��,4.6,��
2020/12/25,00:10,0.686,0.974,0.619,1.230,0.861,0.386,0.683,0.639,��,6.0,��
2020/12/25,00:20,0.685,0.973,0.621,1.229,0.865,0.387,0.682,0.641,���k��,7.3,��
2020/12/25,00:30,0.686,0.974,0.620,1.229,0.864,0.388,0.683,0.640,��,11.3,��
2020/12/25,00:40,0.685,0.976,0.622,1.228,0.865,0.385,0.684,0.639,��,10.9,��
2020/12/25,00:50,0.685,0.975,0.620,1.227,0.863,0.385,0.683,0.640,��,8.6,��
2020/12/25,01:00,0.685,0.975,0.620,1.228,0.862,0.386,0.684,0.639,��,11.1,��
2020/12/25,01:10,0.686,0.974,0.621,1.228,0.866,0.385,0.681,0.640,��,11.6,��
2020/12/25,01:20,0.687,0.973,0.619,1.228,0.863,0.387,0.682,0.640,��,10.5,��
2020/12/25,01:30,0.687,0.975,0.620,1.231,0.862,0.387,0.681,0.640,��,10.7,��
2020/12/25,01:40,0.687,0.975,0.619,1.230,0.863,0.386,0.680,0.641,��,12.4,��
2020/12/25,01:50,0.686,0.973,0.620,1.228,0.865,0.387,0.681,0.640,��,12.1,��
2020/12/25,02:00,0.686,0.974,0.620,1.229,0.866,0.387,0.682,0.640,��,11.9,��
2020/12/25,02:10,0.685,0.974,0.622,1.231,0.865,0.386,0.680,0.641,��,13.9,��
2020/12/25,02:20,0.686,0.975,0.620,1.229,0.865,0.386,0.683,0.640,��,11.4,��
2020/12/25,02:30,0.685,0.972,0.620,1.228,0.866,0.386,0.681,0.640,��,13.0,��
2020/12/25,02:40,0.688,0.975,0.619,1.230,0.864,0.387,0.681,0.641,��,11.7,��
2020/12/25,02:50,0.687,0.974,0.620,1.228,0.866,0.386,0.681,0.640,��,11.7,��
2020/12/25,03:00,0.684,0.976,0.621,1.227,0.866,0.386,0.682,0.639,��,16.0,��
2020/12/25,03:10,0.687,0.975,0.619,1.231,0.865,0.385,0.681,0.641,��,14.1,��
2020/12/25,03:20,0.686,0.974,0.620,1.228,0.866,0.386,0.682,0.641,��,10.6,��
2020/12/25,03:30,0.686,0.973,0.620,1.230,0.867,0.386,0.681,0.642,���k��,11.0,��
2020/12/25,03:40,0.686,0.974,0.619,1.231,0.867,0.387,0.681,0.641,���k��,9.3,��
2020/12/25,03:50,0.686,0.976,0.621,1.230,0.864,0.386,0.680,0.642,�k��,5.2,��
2020/12/25,04:00,0.687,0.975,0.619,1.232,0.866,0.386,0.680,0.641,�k�k��,7.3,��
2020/12/25,04:10,0.684,0.973,0.619,1.229,0.866,0.386,0.681,0.639,�k�k��,6.5,��
2020/12/25,04:20,0.686,0.975,0.621,1.229,0.863,0.385,0.681,0.639,�k�k��,7.1,��
2020/12/25,04:30,0.688,0.976,0.619,1.231,0.866,0.385,0.682,0.640,�k�k��,10.5,��
2020/12/25,04:40,0.685,0.973,0.621,1.233,0.864,0.387,0.681,0.640,�k��,7.9,��
2020/12/25,04:50,0.685,0.972,0.619,1.230,0.865,0.386,0.682,0.640,�k,6.7,��
2020/12/25,05:00,0.686,0.975,0.619,1.229,0.864,0.386,0.682,0.640,�k�k��,10.0,��
2020/12/25,05:10,0.684,0.977,0.620,1.230,0.863,0.385,0.682,0.639,�k�k��,9.9,��
2020/12/25,05:20,0.683,0.973,0.620,1.231,0.864,0.384,0.681,0.641,�k,9.8,��
2020/12/25,05:30,0.686,0.974,0.619,1.230,0.864,0.385,0.681,0.641,�k�k��,9.8,��
2020/12/25,05:40,0.685,0.974,0.621,1.231,0.864,0.385,0.683,0.641,�k,7.3,��
2020/12/25,05:50,0.684,0.974,0.620,1.230,0.867,0.386,0.682,0.640,�k�k��,8.4,��
2020/12/25,06:00,0.684,0.975,0.620,1.227,0.865,0.385,0.683,0.640,�k�k��,9.9,��
2020/12/25,06:10,0.684,0.975,0.619,1.229,0.865,0.384,0.682,0.640,�k,10.2,��
2020/12/25,06:20,0.683,0.976,0.619,1.229,0.866,0.386,0.682,0.641,�k�k��,8.3,��
2020/12/25,06:30,0.683,0.976,0.620,1.230,0.865,0.385,0.681,0.641,�k,6.1,��
2020/12/25,06:40,0.685,0.976,0.619,1.230,0.863,0.386,0.681,0.639,�k�k��,7.3,��
2020/12/25,06:50,0.684,0.975,0.618,1.228,0.865,0.387,0.682,0.639,�k,8.6,��
2020/12/25,07:00,0.685,0.974,0.619,1.229,0.864,0.385,0.682,0.640,�k�k��,8.2,��
2020/12/25,07:10,0.683,0.978,0.619,1.229,0.864,0.385,0.681,0.641,�k�k��,7.0,��
2020/12/25,07:20,0.683,0.975,0.619,1.228,0.864,0.385,0.682,0.640,�k�k��,4.8,��
2020/12/25,07:30,0.683,0.975,0.618,1.228,0.863,0.385,0.683,0.640,�k�k��,5.6,��
2020/12/25,07:40,0.684,0.974,0.618,1.227,0.864,0.385,0.680,0.639,�k�k��,6.0,��
2020/12/25,07:50,0.681,0.974,0.617,1.230,0.864,0.385,0.680,0.641,�k��,6.6,��
2020/12/25,08:00,0.684,0.975,0.620,1.229,0.862,0.384,0.683,0.641,�k��,6.2,��
2020/12/25,08:10,0.681,0.973,0.619,1.229,0.865,0.384,0.679,0.639,�k��,6.7,��
2020/12/25,08:20,0.684,0.974,0.618,1.229,0.865,0.386,0.681,0.640,�k��,7.4,��
2020/12/25,08:30,0.683,0.973,0.620,1.229,0.864,0.384,0.682,0.640,�k��,9.8,��
2020/12/25,08:40,0.682,0.973,0.619,1.230,0.865,0.385,0.682,0.640,�k��,10.5,��
2020/12/25,08:50,0.683,0.972,0.616,1.228,0.864,0.384,0.681,0.641,�k�k��,8.1,��
2020/12/25,09:00,0.683,0.974,0.619,1.229,0.863,0.385,0.682,0.639,�k��,7.2,��
2020/12/25,09:10,0.683,0.975,0.620,1.229,0.864,0.384,0.681,0.641,�k��,11.6,��
2020/12/25,09:20,0.683,0.973,0.619,1.228,0.865,0.384,0.681,0.641,�k��,14.1,��
2020/12/25,09:30,0.684,0.977,0.621,1.228,0.864,0.385,0.681,0.641,�k�k��,10.9,��
2020/12/25,09:40,0.682,0.973,0.619,1.229,0.863,0.385,0.681,0.641,�k��,11.7,��
2020/12/25,09:50,0.682,0.975,0.620,1.227,0.866,0.384,0.681,0.639,�k��,12.1,��
2020/12/25,10:00,0.681,0.974,0.620,1.229,0.863,0.384,0.681,0.640,�k��,10.9,��
2020/12/25,10:10,0.684,0.973,0.619,1.231,0.863,0.388,0.681,0.639,�k��,9.5,��
2020/12/25,10:20,0.684,0.972,0.619,1.230,0.864,0.386,0.680,0.641,�k��,11.1,��
2020/12/25,10:30,0.685,0.972,0.619,1.231,0.864,0.384,0.681,0.641,�k��,10.6,��
2020/12/25,10:40,0.685,0.974,0.620,1.231,0.863,0.385,0.681,0.641,�k��,9.3,��
2020/12/25,10:50,0.686,0.976,0.619,1.229,0.865,0.386,0.680,0.641,�k��,10.2,��
2020/12/25,11:00,0.684,0.971,0.621,1.231,0.866,0.385,0.681,0.641,�k��,9.8,��
2020/12/25,11:10,0.686,0.973,0.617,1.230,0.866,0.385,0.680,0.642,�k��,9.5,��
2020/12/25,11:20,0.683,0.976,0.619,1.233,0.866,0.386,0.682,0.641,���k��,10.8,��
2020/12/25,11:30,0.682,0.972,0.619,1.229,0.866,0.385,0.681,0.641,�k��,8.8,��
2020/12/25,11:40,0.685,0.974,0.618,1.232,0.867,0.385,0.681,0.641,�k��,8.8,��
2020/12/25,11:50,0.683,0.975,0.621,1.234,0.866,0.385,0.682,0.643,�k��,10.5,��
2020/12/25,12:00,0.684,0.974,0.620,1.232,0.867,0.385,0.681,0.640,�k��,11.3,��
2020/12/25,12:10,0.684,0.975,0.620,1.233,0.866,0.386,0.681,0.640,�k��,12.7,��
2020/12/25,12:20,0.683,0.976,0.620,1.232,0.866,0.386,0.681,0.641,�k��,10.2,��
2020/12/25,12:30,0.684,0.976,0.621,1.233,0.866,0.385,0.683,0.641,�k��,11.7,��
2020/12/25,12:40,0.684,0.976,0.619,1.232,0.867,0.386,0.682,0.640,�k��,9.9,��
2020/12/25,12:50,0.683,0.976,0.620,1.233,0.867,0.384,0.682,0.642,�k��,9.4,��
2020/12/25,13:00,0.684,0.973,0.620,1.231,0.866,0.386,0.682,0.639,�k��,8.8,��
2020/12/25,13:10,0.685,0.975,0.619,1.232,0.867,0.385,0.682,0.640,�k��,9.8,��
2020/12/25,13:20,0.685,0.974,0.621,1.231,0.867,0.385,0.683,0.640,�k��,10.5,��
2020/12/25,13:30,0.685,0.973,0.619,1.232,0.867,0.385,0.683,0.637,���k��,9.5,��
2020/12/25,13:40,0.685,0.973,0.620,1.233,0.868,0.385,0.682,0.638,���k��,11.3,��
2020/12/25,13:50,0.685,0.975,0.621,1.231,0.868,0.384,0.682,0.639,���k��,10.9,��
2020/12/25,14:00,0.687,0.975,0.618,1.231,0.866,0.385,0.681,0.638,���k��,7.4,��
2020/12/25,14:10,0.685,0.976,0.620,1.235,0.868,0.386,0.682,0.639,���k��,9.2,��
2020/12/25,14:20,0.684,0.978,0.621,1.234,0.868,0.385,0.682,0.639,�k��,9.2,��
2020/12/25,14:30,0.687,0.974,0.621,1.231,0.869,0.385,0.683,0.642,�k��,8.8,��
2020/12/25,14:40,0.684,0.976,0.620,1.234,0.868,0.385,0.683,0.640,�k��,8.6,��
2020/12/25,14:50,0.682,0.976,0.620,1.233,0.867,0.386,0.681,0.640,�k��,7.6,��
2020/12/25,15:00,0.684,0.980,0.621,1.233,0.868,0.385,0.682,0.640,���k��,7.0,��
2020/12/25,15:10,0.686,0.978,0.621,1.234,0.867,0.384,0.682,0.639,���k��,7.9,��
2020/12/25,15:20,0.684,0.978,0.621,1.235,0.868,0.385,0.681,0.641,���k��,6.3,��
2020/12/25,15:30,0.684,0.977,0.621,1.231,0.866,0.385,0.682,0.640,���k��,7.0,��
2020/12/25,15:40,0.685,0.980,0.620,1.234,0.866,0.384,0.683,0.641,���k��,7.2,��
2020/12/25,15:50,0.683,0.978,0.620,1.232,0.868,0.383,0.683,0.642,���k��,7.7,��
2020/12/25,16:00,0.685,0.980,0.619,1.234,0.866,0.385,0.681,0.640,�k��,5.8,��
2020/12/25,16:10,0.685,0.980,0.620,1.234,0.866,0.384,0.683,0.641,�k��,5.6,��
2020/12/25,16:20,0.683,0.978,0.618,1.233,0.866,0.385,0.681,0.641,�k��,5.5,��
2020/12/25,16:30,0.683,0.978,0.620,1.230,0.867,0.384,0.682,0.639,�k��,4.1,��
2020/12/25,16:40,0.683,0.980,0.620,1.233,0.866,0.386,0.681,0.639,�k��,4.3,��
2020/12/25,16:50,0.683,0.977,0.619,1.234,0.866,0.385,0.682,0.640,���k��,3.4,��
2020/12/25,17:00,0.684,0.977,0.621,1.235,0.866,0.386,0.681,0.641,���k��,5.0,��
2020/12/25,17:10,0.683,0.978,0.620,1.232,0.866,0.383,0.682,0.639,���k��,4.9,��
2020/12/25,17:20,0.682,0.979,0.619,1.232,0.867,0.384,0.681,0.639,���k��,5.2,��
2020/12/25,17:30,0.684,0.978,0.619,1.233,0.868,0.384,0.680,0.640,���k��,5.8,��
2020/12/25,17:40,0.682,0.977,0.620,1.231,0.866,0.384,0.681,0.640,���k��,4.8,��
2020/12/25,17:50,0.683,0.978,0.619,1.231,0.865,0.384,0.679,0.638,�k��,4.1,��
2020/12/25,18:00,0.682,0.979,0.618,1.233,0.865,0.383,0.681,0.639,�k��,3.3,��
2020/12/25,18:10,0.683,0.977,0.618,1.232,0.865,0.385,0.680,0.638,�k��,2.2,��
2020/12/25,18:20,0.681,0.977,0.619,1.232,0.867,0.383,0.680,0.638,�k��,2.6,��
2020/12/25,18:30,0.683,0.978,0.617,1.233,0.866,0.386,0.680,0.638,�k��,3.3,��
2020/12/25,18:40,0.681,0.977,0.618,1.231,0.864,0.385,0.680,0.641,�k��,2.2,��
2020/12/25,18:50,0.679,0.978,0.618,1.233,0.865,0.385,0.679,0.638,�k��,2.6,��
2020/12/25,19:00,0.684,0.976,0.619,1.231,0.864,0.384,0.679,0.639,�k�k��,2.2,��
2020/12/25,19:10,0.684,0.975,0.618,1.229,0.866,0.383,0.680,0.638,�k��,1.5,��
2020/12/25,19:20,0.683,0.977,0.619,1.231,0.866,0.383,0.680,0.638,���k��,1.2,��
2020/12/25,19:30,0.682,0.977,0.619,1.231,0.863,0.384,0.678,0.639,�k�k��,2.5,��
2020/12/25,19:40,0.682,0.976,0.617,1.232,0.866,0.384,0.678,0.639,�k�k��,3.4,��
2020/12/25,19:50,0.682,0.977,0.618,1.231,0.865,0.384,0.678,0.640,�k�k��,4.3,��
2020/12/25,20:00,0.682,0.977,0.618,1.233,0.865,0.383,0.680,0.639,�k�k��,4.3,��
2020/12/25,20:10,0.681,0.978,0.618,1.234,0.863,0.383,0.679,0.638,�k,6.0,��
2020/12/25,20:20,0.681,0.976,0.618,1.233,0.866,0.383,0.680,0.639,�k,7.0,��
2020/12/25,20:30,0.683,0.976,0.616,1.230,0.864,0.384,0.679,0.639,�k,6.2,��
2020/12/25,20:40,0.681,0.977,0.618,1.230,0.865,0.384,0.679,0.640,�k�k��,4.8,��
2020/12/25,20:50,0.681,0.977,0.618,1.230,0.865,0.383,0.679,0.639,�k��,5.2,��
2020/12/25,21:00,0.683,0.975,0.618,1.230,0.865,0.385,0.680,0.640,�k��,11.9,��
2020/12/25,21:10,0.683,0.977,0.619,1.233,0.864,0.383,0.681,0.640,�k��,10.5,��
2020/12/25,21:20,0.682,0.974,0.618,1.232,0.867,0.384,0.680,0.639,���k��,9.7,��
2020/12/25,21:30,0.683,0.978,0.616,1.232,0.867,0.382,0.680,0.639,���k��,9.6,��
2020/12/25,21:40,0.680,0.977,0.617,1.232,0.865,0.383,0.682,0.640,���k��,9.7,��
2020/12/25,21:50,0.681,0.978,0.615,1.232,0.863,0.382,0.682,0.639,�k��,9.3,��
2020/12/25,22:00,0.683,0.976,0.616,1.234,0.866,0.383,0.682,0.639,�k��,9.6,��
2020/12/25,22:10,0.684,0.977,0.616,1.234,0.866,0.384,0.680,0.639,���k��,8.4,��
2020/12/25,22:20,0.683,0.977,0.617,1.232,0.865,0.383,0.680,0.639,�k��,8.3,��
2020/12/25,22:30,0.682,0.974,0.616,1.230,0.865,0.384,0.680,0.639,�k��,8.4,��
2020/12/25,22:40,0.682,0.977,0.617,1.231,0.864,0.384,0.680,0.639,���k��,7.7,��
2020/12/25,22:50,0.684,0.977,0.618,1.232,0.866,0.385,0.680,0.639,�k��,6.3,��
2020/12/25,23:00,0.683,0.974,0.618,1.231,0.866,0.383,0.679,0.641,���k��,7.2,��
2020/12/25,23:10,0.682,0.979,0.618,1.233,0.864,0.383,0.680,0.639,�k��,6.7,��
2020/12/25,23:20,0.683,0.976,0.618,1.233,0.865,0.384,0.680,0.638,�k��,7.6,��
2020/12/25,23:30,0.681,0.975,0.618,1.233,0.864,0.384,0.679,0.638,�k��,7.9,��
2020/12/25,23:40,0.681,0.977,0.618,1.233,0.865,0.384,0.681,0.640,�k��,5.9,��
2020/12/25,23:50,0.681,0.976,0.619,1.231,0.866,0.383,0.679,0.637,�k��,6.4,��
